Delta Virtual Airport Information Service

Copenhagen Airport

ICAO: EKCH Country: Denmark
Latitude: 55.6084 Longitude: 12.6454
Latest Arrival : BAW812 (EGLL-EKCH) Latest Departure : AFR1751 (EKCH-LFPG)


WX CaptureLIVE
Data provided by noaa.gov | Fetched at 08:27:59

METAR : EKCH 061350Z AUTO 28020G30KT 9999 OVC029/// 06/00 Q1024 NOSIG

TAF : EKCH 061107Z 0612/0712 29018KT 9999 SCT020 TEMPO 0612/0706 29018G28KT PROB40 0623/0705 BKN010 BECMG 0705/0708 BKN010 BECMG 0708/0711 FEW030


Runway Data for EKCH
Data provided by openaviationdata.com

Runway ID Mag Var Hdg Length Elevation Surface ILS Freq ILS Id ILS Slope
04L 2 38° 11694 ft 17 ft Asphalt 110.5 CH 3
04R 2 38° 10812 ft 17 ft Asphalt 109.3 NE 3
12 2 120° 8728 ft 17 ft Asphalt 109.9 KA 3
22L 2 218° 10812 ft 17 ft Asphalt 109.5 OXS 3
22R 2 218° 11694 ft 17 ft Asphalt 110.9 KLK 3
30 2 300° 8728 ft 17 ft Asphalt 108.9 OY 3

Copenhagen Airport, Denmark
Use only for reference purposes



Not for navigational purposes.